Hayward, WI

7:14 AM CST on November 21, 2019 (GMT -0600)
Sawyer County

Weather History for KHYR - September, 2019

Change the Weather History Date:

Tuesday, September 17, 2019

  Actual Average Record
Temperature  
Mean Temperature 70 °F -  
Max Temperature 79 °F 78 °F 84 °F (1998)
Min Temperature 63 °F 36 °F 32 °F (2011)
Cooling Degree Days 6    
Growing Degree Days 20 (Base 50)    
Moisture  
Dew Point 63 °F    
Average Humidity 76    
Maximum Humidity 90    
Minimum Humidity 60    
Precipitation  
Precipitation 0.00 in - - ()
Sea Level Pressure  
Sea Level Pressure 30.01 in    
Wind  
Wind Speed 4 mph (SSE)    
Max Wind Speed 13 mph    
Max Gust Speed 26 mph    
Visibility 10 miles    
Events      
Averages and records for this station are not official NWS values.
T = Trace of Precipitation, MM = Missing Value Source: NWS Daily Summary

Daily Weather History Graph

Daily Weather History Graph

Search for Another Location

Airport or City:

Astronomy

Sep. 17, 2019 Rise Set
Actual Time 6:46 AM CDT 7:13 PM CDT
Civil Twilight 6:16 AM CDT 7:43 PM CDT
Nautical Twilight 5:40 AM CDT 8:18 PM CDT
Astronomical Twilight 5:03 AM CDT 8:55 PM CDT
Moon 9:06 PM CDT (9/17) 9:59 AM CDT (9/17)
Length of Visible Light 13h 27m
Length of Day
12h 27m
Waning Gibbous, 89% of the Moon is Illuminated
Sep 17
Waning Gibbous
Sep 21
Last Quarter
Sep 28
New
Oct 5
First Quarter
Oct 13
Full

Hourly Weather History & Observations

Time (CDT) Temp. Dew Point Humidity Pressure Visibility Wind Dir Wind Speed Gust Speed Precip Events Conditions
12:53 AM 64.9 °F 61.0 °F 87% 30.03 in 10.0 mi Calm Calm - N/A   Clear
1:53 AM 68.0 °F 62.1 °F 81% 30.04 in 10.0 mi Calm Calm - N/A   Clear
2:53 AM 66.9 °F 61.0 °F 81% 30.04 in 10.0 mi SSE 3.5 mph - N/A   Clear
3:53 AM 63.0 °F 60.1 °F 90% 30.05 in 10.0 mi Calm Calm - N/A   Clear
4:53 AM 66.9 °F 62.1 °F 84% 30.05 in 10.0 mi South 3.5 mph - N/A   Clear
5:53 AM 66.9 °F 62.1 °F 84% 30.05 in 10.0 mi SSE 6.9 mph - N/A   Partly Cloudy
6:53 AM 66.9 °F 62.1 °F 84% 30.07 in 10.0 mi South 3.5 mph - N/A   Clear
7:53 AM 68.0 °F 63.0 °F 84% 30.07 in 10.0 mi SSE 4.6 mph - N/A   Clear
8:53 AM 69.1 °F 63.0 °F 81% 30.08 in 10.0 mi South 5.8 mph - N/A   Clear
9:53 AM 69.1 °F 63.0 °F 81% 30.06 in 10.0 mi South 6.9 mph - N/A   Clear
10:53 AM 69.1 °F 63.0 °F 81% 30.07 in 10.0 mi South 4.6 mph - N/A   Clear
11:53 AM 70.0 °F 62.1 °F 76% 30.05 in 10.0 mi SE 6.9 mph - N/A   Clear
12:53 PM 72.0 °F 62.1 °F 71% 30.04 in 10.0 mi SSE 5.8 mph - N/A   Clear
1:53 PM 73.9 °F 64.0 °F 71% 30.01 in 10.0 mi SSE 4.6 mph - N/A   Clear
2:53 PM 77.0 °F 66.0 °F 69% 29.99 in 10.0 mi SE 5.8 mph - N/A   Clear
3:53 PM 78.1 °F 66.9 °F 68% 29.96 in 10.0 mi SSE 5.8 mph 17.3 mph N/A   Clear
4:53 PM 78.1 °F 66.9 °F 68% 29.95 in 10.0 mi SSE 9.2 mph - N/A   Clear
5:53 PM 78.1 °F 66.0 °F 66% 29.94 in 10.0 mi SSE 10.4 mph 19.6 mph N/A   Clear
6:53 PM 75.9 °F 66.0 °F 71% 29.94 in 10.0 mi SSE 8.1 mph - N/A   Clear
7:53 PM 75.9 °F 64.9 °F 69% 29.94 in 10.0 mi SSE 11.5 mph - N/A   Clear
8:53 PM 75.0 °F 60.1 °F 60% 29.95 in 10.0 mi SSE 11.5 mph 26.5 mph N/A   Clear
9:53 PM 73.0 °F 60.1 °F 64% 29.96 in 10.0 mi South 12.7 mph 21.9 mph N/A   Clear
10:53 PM 70.0 °F 60.1 °F 71% 29.96 in 10.0 mi South 8.1 mph - N/A   Clear
11:53 PM 69.1 °F 61.0 °F 75% 29.96 in 10.0 mi South 8.1 mph - N/A   Clear